Garden City, KS

3:11 AM CDT on October 17, 2017 (GMT -0500)
Garden City Regional

Weather History for KGCK - May, 2013

Change the Weather History Date:

Sunday, May 19, 2013

  Actual Average Record
Temperature  
Mean Temperature 68 °F 64 °F  
Max Temperature 82 °F 77 °F 100 °F (2006)
Min Temperature 54 °F 51 °F 34 °F (1983)
Degree Days  
Heating Degree Days 0 3  
Month to date heating degree days 131 101  
Since 1 July heating degree days 5185 5163  
Cooling Degree Days 3 3  
Month to date cooling degree days 62 32  
Year to date cooling degree days 66 44  
Growing Degree Days 19 (Base 50)    
Moisture  
Dew Point 48 °F    
Average Humidity 49    
Maximum Humidity 77    
Minimum Humidity 21    
Precipitation  
Precipitation 0.14 in 0.10 in 2.09 in (1955)
Month to date precipitation 0.68 1.62  
Year to date precipitation 1.56 5.68  
Sea Level Pressure  
Sea Level Pressure 29.64 in    
Wind  
Wind Speed 13 mph (NW)    
Max Wind Speed 36 mph    
Max Gust Speed 43 mph    
Visibility 9 miles    
Events Rain , Thunderstorm    
T = Trace of Precipitation, MM = Missing Value Source: NWS Daily Summary

Daily Weather History Graph

Daily Weather History Graph

Search for Another Location

Airport or City:

Trip Planner

Search our weather history database for the weather conditions in past years. The results will help you decide how hot, cold, wet, or windy it might be!

Date:

Astronomy

May. 19, 2013 Rise Set
Actual Time 6:29 AM CDT 8:49 PM CDT
Civil Twilight 5:59 AM CDT 9:19 PM CDT
Nautical Twilight 5:22 AM CDT 9:56 PM CDT
Astronomical Twilight 4:42 AM CDT 10:37 PM CDT
Moon 3:01 PM CDT (5/19) 2:47 AM CDT (5/19)
Length of Visible Light 15h 20m
Length of Day
14h 20m
Waxing Gibbous, 65% of the Moon is Illuminated
May 19
Waxing Gibbous
May 24
Full
May 31
Last Quarter
Jun 8
New
Jun 16
First Quarter

Hourly Weather History & Observations

Time (CDT) Temp. Dew Point Humidity Pressure Visibility Wind Dir Wind Speed Gust Speed Precip Events Conditions
12:54 AM 72.0 °F 46.9 °F 41% 29.52 in 10.0 mi SSE 19.6 mph 27.6 mph N/A   Clear
1:54 AM 69.1 °F 48.9 °F 49% 29.52 in 10.0 mi SSE 12.7 mph - N/A   Clear
2:54 AM 68.0 °F 50.0 °F 52% 29.51 in 10.0 mi SSE 15.0 mph - N/A   Clear
3:54 AM 66.9 °F 50.0 °F 54% 29.54 in 10.0 mi South 17.3 mph 26.5 mph N/A   Partly Cloudy
4:54 AM 64.9 °F 51.1 °F 61% 29.55 in 10.0 mi South 16.1 mph 20.7 mph N/A   Clear
5:54 AM 59.0 °F 52.0 °F 78% 29.56 in 10.0 mi WNW 6.9 mph - N/A   Clear
6:32 AM 60.8 °F 50.0 °F 68% 29.70 in 10.0 mi WNW 6.9 mph - N/A   Mostly Cloudy
6:54 AM 60.8 °F 50.0 °F 68% 29.71 in 10.0 mi WNW 9.2 mph - N/A   Overcast
7:54 AM 61.0 °F 50.0 °F 67% 29.61 in 10.0 mi NNW 11.5 mph - N/A   Overcast
8:54 AM 62.1 °F 51.1 °F 67% 29.63 in 10.0 mi North 13.8 mph - N/A   Overcast
9:49 AM 64.4 °F 50.0 °F 59% 29.73 in 10.0 mi NNW 12.7 mph - N/A   Mostly Cloudy
9:54 AM 66.0 °F 50.0 °F 56% 29.64 in 10.0 mi NW 13.8 mph - N/A   Mostly Cloudy
10:54 AM 69.1 °F 50.0 °F 51% 29.62 in 10.0 mi NW 6.9 mph - N/A   Clear
11:54 AM 72.0 °F 48.0 °F 43% 29.61 in 10.0 mi NW 17.3 mph 23.0 mph N/A   Clear
12:54 PM 72.0 °F 46.0 °F 40% 29.61 in 10.0 mi West 8.1 mph - N/A   Clear
1:54 PM 75.2 °F 42.8 °F 31% 29.68 in 10.0 mi NW 11.5 mph 21.9 mph N/A   Clear
2:54 PM 78.8 °F 42.8 °F 28% 29.67 in 10.0 mi NW 16.1 mph 21.9 mph N/A   Partly Cloudy
3:54 PM 80.1 °F 39.9 °F 24% 29.56 in 10.0 mi NW 9.2 mph - N/A   Scattered Clouds
4:54 PM 81.0 °F 37.0 °F 21% 29.55 in 10.0 mi NW 13.8 mph - N/A   Partly Cloudy
5:54 PM 78.8 °F 42.8 °F 28% 29.65 in 10.0 mi NNW 23.0 mph - N/A   Clear
6:54 PM 77.0 °F 42.1 °F 29% 29.56 in 10.0 mi North 16.1 mph - N/A   Clear
7:54 PM 59.0 °F 48.0 °F 67% 29.70 in 4.0 mi West 33.4 mph 42.6 mph 0.02 in Rain Light Rain
7:56 PM 57.2 °F 48.2 °F 72% 29.76 in 2.5 mi West 31.1 mph 42.6 mph 0.02 in Rain Heavy Rain
8:04 PM 57.2 °F 48.2 °F 72% 29.76 in 1.5 mi NW 23.0 mph - 0.08 in Rain Heavy Rain
8:10 PM 57.2 °F 50.0 °F 77% 29.74 in 3.0 mi North 20.7 mph - 0.11 in Rain Heavy Rain
8:18 PM 60.8 °F 48.2 °F 63% 29.71 in 5.0 mi North 21.9 mph - 0.11 in Rain Light Rain
8:25 PM 62.6 °F 50.0 °F 63% 29.73 in 10.0 mi NNW 23.0 mph 34.5 mph 0.12 in Rain , Thunderstorm Light Rain
8:37 PM 60.8 °F 50.0 °F 68% 29.74 in 10.0 mi North 15.0 mph - 0.12 in   Partly Cloudy
8:54 PM 60.1 °F 51.1 °F 72% 29.69 in 10.0 mi North 12.7 mph - 0.12 in   Clear
9:54 PM 59.0 °F 48.9 °F 69% 29.68 in 10.0 mi NE 6.9 mph - N/A   Clear
10:54 PM 57.9 °F 48.0 °F 70% 29.69 in 10.0 mi NNE 6.9 mph - N/A   Clear
11:54 PM 55.0 °F 48.0 °F 77% 29.69 in 10.0 mi NNE 4.6 mph - N/A   Clear